Showing default

FLOCK 4G 9, 62622

Orbit data source: Space-Track

FLOCK 4G 9, 62622 is a payload satellite owned by Planet (US) in SSO that was launched on Tue, 14 Jan 2025 UTC via an FALCON 9 launch vehicle from the Air Force Western Test Range (AFWTR). Payload-class satellites include a variety of spacecraft equipped with specific instruments for various scientific and technological missions. These include communications satellites like Starlink; space stations such as the ISS; scientific satellites like the Hubble; Earth observation satellites from companies like Planet Labs, Umbra, and HawkEye 360; GPS; miniature CubeSats for education and research; and military/defense satellites.

Loading next visibility...
Identifier
62622, 2025-009P
Orbit
SSO
Country
Flag of USUS
Related business
Manufacturer
Planet
Mission
Operational Commercial Imaging
Bus & Motor
CUBESAT 3U, Unknown motor
Mass
5.7 kg wet, 5.7 kg dry
Launch date (UTC)
2025-01-14 (1 year ago)
Launch vehicle
FALCON 9
Launch site
Air Force Western Test Range (AFWTR)
Object type
Payload
Rocket body
Debris
Shape & HBR
Box + 2 Pan, 1.0 m
Radar Cross Section
0.072 m², Medium (>0.1 m² and < 1m²)

Expand to show TLE details & history
Last TLE update: 17 hours ago

TLE from 17 hours ago
0 FLOCK 4G 9
1 62622U 25009P   26074.18539190  .00012259  00000-0  47444-3 0  9994
2 62622  97.3998 155.9368 0003398 302.5995  57.4915 15.26331921 64518
Epoch: 2026-03-15T04:26Z
TLE epoch observation values (Epoch: 2026-03-15T04:26:57.860Z)
Latitude
-0.00003°
Longitude
-83.60013°
Altitude
488.635 km
Speed
7.621 km/s
True Right ascension
10h 23m 44s
True Declination
0° 00' 00"
Sunlit
Object was in full shadow at epoch
Visualization orbit readout
Latitude
Unknown
Longitude
Unknown
Altitude
Unknown
Speed
Unknown
Apparent Right ascension
Unknown
Apparent Declination
Unknown
Sunlit
N/A
Visualization observer readout
Local Sidereal Time
02:05:29
Azimuth
Unknown
Elevation
Unknown
Doppler factor
Unknown
Orbital elements
Apogee altitude
486.078 km
Perigee altitude
481.414 km
Semi-major axis
6,861.883 km
Eccentricity
0.00034
Inclination
97.3998°
RAAN
155.9368°
Arg. of periapsis
302.5995°
True anomaly
57.52434°
Mean anomaly
57.4915°
Eccentric anomaly
57.50792°
Mean motion
3.81837 °/min
Orbital period
94.28 mins
BSTAR
0.00047444
Loading maneuver chart data...
Computing Atmospheric mass density...
Loading historical data...
Loading historical data...
Loading historical data...
Loading historical data...
Loading historical data...
Loading historical data...
Loading historical data...

Documentation

Showing up to 5 results
|